EW5610 Weather Reports


time (UTC)temp
C
wind
direction
speed
KPH
gust
KPH
rain 1hr
cm
rain 24hr
cm
rain mn
cm
humidity
%
barometer
mb
20260506161546 16 201 12.9 29.0 0.00 0.00 0.00 79 1008.1
20260506160054 16 215 12.9 37.0 0.00 0.00 0.00 79 1008.1
20260506154544 16 234 8.0 20.9 0.00 0.00 0.00 78 1008.4
20260506153041 16 217 8.0 22.5 0.00 0.00 0.00 77 1008.4
20260506151541 16 207 8.0 27.4 0.00 0.00 0.00 77 1008.5
20260506150049 17 226 12.9 27.4 0.00 0.00 0.00 75 1008.5
20260506144540 16 207 12.9 27.4 0.00 0.00 0.00 76 1008.5
20260506143040 16 232 12.9 30.6 0.00 0.00 0.00 76 1008.6
20260506141542 16 185 6.4 27.4 0.00 0.00 0.00 78 1008.7
20260506140037 16 213 19.3 29.0 0.00 0.00 0.00 77 1008.6
20260506134536 16 225 11.3 32.2 0.00 0.00 0.00 78 1008.5
20260506133042 16 150 16.1 27.4 0.00 0.00 0.00 77 1008.4
20260506131535 16 225 22.5 38.6 0.00 0.00 0.00 78 1008.3
20260506130034 16 207 19.3 35.4 0.00 0.00 0.00 78 1008.6
20260506124531 16 164 9.7 25.7 0.00 0.00 0.00 79 1008.8
20260506123029 15 173 9.7 25.7 0.00 0.00 0.00 80 1009.0
20260506121527 15 212 11.3 30.6 0.00 0.00 0.00 81 1008.7
20260506120047 15 173 9.7 22.5 0.00 0.00 0.00 83 1008.8
20260506114525 15 205 8.0 25.7 0.00 0.00 0.00 84 1008.9
20260506113024 14 187 4.8 22.5 0.00 0.00 0.00 85 1008.9
20260506111523 13 182 9.7 20.9 0.00 0.00 0.00 86 1008.8
20260506110025 13 172 14.5 20.9 0.00 0.00 0.00 87 1009.0
20260506104535 13 205 9.7 19.3 0.00 0.00 0.00 88 1009.0
20260506103036 13 184 6.4 16.1 0.00 0.00 0.00 88 1008.7
20260506101520 13 198 6.4 16.1 0.00 0.00 0.00 88 1008.7
20260506100019 13 202 8.0 14.5 0.00 0.00 0.00 88 1008.6
20260506094518 13 197 8.0 14.5 0.00 0.00 0.00 88 1008.7
20260506093021 13 195 8.0 14.5 0.00 0.00 0.00 87 1008.7
20260506091518 13 193 8.0 19.3 0.00 0.00 0.00 86 1008.7
20260506090015 13 209 8.0 12.9 0.00 0.00 0.00 86 1008.9
20260506084530 13 192 4.8 20.9 0.00 0.00 0.00 86 1009.1
20260506083013 13 217 11.3 22.5 0.00 0.00 0.00 86 1009.2
20260506081512 13 221 11.3 25.7 0.00 0.00 0.00 85 1009.2
20260506073007 14 203 9.7 33.8 0.00 0.00 0.00 83 1009.2
20260506071505 14 220 14.5 25.7 0.00 0.00 0.00 83 1009.2
20260506061558 14 216 4.8 20.9 0.00 0.00 0.00 81 1009.2
20260506044549 15 217 9.7 20.9 0.00 0.00 0.00 79 1009.7
20260506043049 15 199 9.7 25.7 0.00 0.00 0.00 79 1009.7
20260506041556 15 227 11.3 29.0 0.00 0.00 0.00 79 1009.9
20260506040043 15 210 11.3 22.5 0.00 0.00 0.00 78 1009.8
20260506034543 15 175 6.4 17.7 0.00 0.00 0.00 77 1009.8
20260506033041 15 157 12.9 25.7 0.00 0.00 0.00 76 1009.7
20260506031543 15 249 8.0 22.5 0.00 0.00 0.00 75 1009.7
20260506030042 15 217 11.3 32.2 0.00 0.00 0.00 74 1009.7
20260506024541 15 219 11.3 22.5 0.00 0.00 0.00 73 1009.7
20260506023056 15 184 8.0 19.3 0.00 0.00 0.00 72 1009.7
20260506021603 16 190 6.4 27.4 0.00 0.00 0.00 72 1009.5
20260506020039 16 188 8.0 20.9 0.00 0.00 0.00 71 1009.5
20260506014539 16 221 8.0 27.4 0.00 0.00 0.00 71 1009.3
20260506013038 15 207 9.7 17.7 0.00 0.00 0.00 72 1009.2
20260506011540 15 219 9.7 24.1 0.00 0.00 0.00 71 1009.2
20260506010037 16 207 11.3 22.5 0.00 0.00 0.00 71 1009.0
20260506004537 16 238 8.0 25.7 0.00 0.00 0.00 71 1008.7
20260506003038 16 227 14.5 27.4 0.00 0.00 0.00 70 1008.6
20260506001537 16 165 12.9 25.7 0.00 0.00 0.00 70 1008.2
20260506000035 16 168 4.8 30.6 0.00 0.00 0.00 69 1007.9
20260505234536 16 224 12.9 22.5 0.00 0.00 0.00 69 1007.8
20260505233036 16 213 9.7 29.0 0.00 0.00 0.00 69 1007.4
20260505231547 16 198 9.7 22.5 0.00 0.00 0.00 69 1007.1
20260505230035 16 192 3.2 12.9 0.00 0.00 0.00 69 1007.8
20260505224534 16 210 8.0 19.3 0.00 0.00 0.00 68 1007.6
20260505223032 17 212 8.0 24.1 0.00 0.00 0.00 66 1007.6
20260505221534 17 182 9.7 32.2 0.00 0.00 0.00 65 1007.3
20260505220032 17 209 14.5 27.4 0.00 0.00 0.00 64 1007.3
20260505214548 17 203 9.7 22.5 0.00 0.00 0.00 65 1007.1
20260505213037 18 201 16.1 27.4 0.00 0.00 0.00 64 1007.5
20260505211531 18 209 14.5 33.8 0.00 0.00 0.00 63 1007.1
20260505210030 18 190 14.5 35.4 0.00 0.00 0.00 62 1007.0
20260505204529 18 219 17.7 32.2 0.00 0.00 0.00 63 1007.0
20260505203047 18 169 8.0 24.1 0.00 0.00 0.00 65 1006.7
20260505201532 18 232 8.0 25.7 0.00 0.00 0.00 65 1007.1
20260505200026 18 175 11.3 29.0 0.00 0.00 0.00 65 1007.2
20260505194526 19 167 9.7 29.0 0.00 0.00 0.00 64 1007.3
20260505193031 18 196 16.1 29.0 0.00 0.00 0.00 65 1007.5
20260505191523 18 203 17.7 29.0 0.00 0.00 0.00 65 1007.6
20260505190022 18 221 11.3 22.5 0.00 0.00 0.00 65 1007.7
20260505184525 18 166 6.4 22.5 0.00 0.00 0.00 66 1007.6
20260505183022 18 221 17.7 29.0 0.00 0.00 0.00 66 1007.6
20260505181519 18 199 17.7 30.6 0.00 0.00 0.00 67 1007.7
20260505180020 18 175 12.9 27.4 0.00 0.00 0.00 66 1007.8
20260505174527 19 168 12.9 30.6 0.00 0.00 0.00 63 1007.8
20260505173015 19 215 19.3 27.4 0.00 0.00 0.00 62 1008.0
20260505171514 20 223 14.5 27.4 0.00 0.00 0.00 64 1007.8
20260505170018 19 213 12.9 22.5 0.00 0.00 0.00 65 1008.1
20260505164511 19 173 6.4 24.1 0.00 0.00 0.00 65 1008.2
20260505163013 18 229 8.0 22.5 0.00 0.00 0.00 65 1008.3